Printer-friendly version

IAU Minor Planet Center

Minor Planet Center

MPEC 2004-L35 : 2004 LC2

The following Minor Planet Electronic Circular may be linked-to from your own Web pages, but must not otherwise be redistributed electronically.


Read MPEC 2004-L34 Read MPEC 2004-L36


M.P.E.C. 2004-L35                                Issued 2004 June 12, 13:54 UT

     The Minor Planet Electronic Circulars contain information on unusual
         minor planets and routine data on comets.  They are published
   on behalf of Commission 20 of the International Astronomical Union by the
          Minor Planet Center, Smithsonian Astrophysical Observatory,
                          Cambridge, MA 02138, U.S.A.

         Supported in part by the Steven and Michele Kirsch Foundation
             Prepared using the Tamkin Foundation Computer Network

                              MPC@CFA.HARVARD.EDU
          URL http://cfa-www.harvard.edu/iau/mpc.html  ISSN 1523-6714

                                   2004 LC2

Observations:
     K04L02C* C2004 06 11.37954 20 37 51.82 -20 24 24.5          16.3   EL035704
     K04L02C  C2004 06 11.38967 20 37 59.50 -20 24 40.6          16.6   EL035704
     K04L02C  C2004 06 11.39959 20 38 07.07 -20 24 56.3          16.6   EL035704
     K04L02C  C2004 06 11.40986 20 38 14.88 -20 25 12.5          16.7   EL035704
     K04L02C  C2004 06 11.41978 20 38 22.46 -20 25 28.2          16.5   EL035704
     K04L02C  C2004 06 12.00158 20 46 26.23 -20 40 47.2          16.1 R EL035620
     K04L02C  C2004 06 12.00464 20 46 28.87 -20 40 52.5          16.1 R EL035620
     K04L02C  C2004 06 12.01025 20 46 33.68 -20 41 01.7          16.0 R EL035620
     K04L02C  C2004 06 12.05128 20 47 09.30 -20 42 09.4          16.4 R EL035J87
     K04L02C  C2004 06 12.05168 20 47 09.65 -20 42 10.1          16.1 R EL035J87
     K04L02C  C2004 06 12.05206 20 47 09.98 -20 42 10.8          16.2 R EL035J87
     K04L02C  C2004 06 12.05244 20 47 10.30 -20 42 11.6          16.3 R EL035J87
     K04L02C  C2004 06 12.05282 20 47 10.70 -20 42 12.3          16.2 R EL035J87
     K04L02C  C2004 06 12.06852 20 47 23.72 -20 42 43.7          16.0 R EL035J95
     K04L02C  C2004 06 12.07159 20 47 26.30 -20 42 48.2          16.2 R EL035J95
     K04L02C  C2004 06 12.07438 20 47 28.78 -20 42 53.1          16.2 R EL035J95
     K04L02C  C2004 06 12.08962 20 47 42.27 -20 43 12.7          15.2 V EL035941
     K04L02C  C2004 06 12.09073 20 47 43.20 -20 43 14.5          15.4 V EL035941
     K04L02C  C2004 06 12.09183 20 47 44.14 -20 43 16.4          15.5 V EL035941
     K04L02C  C2004 06 12.09349 20 47 45.56 -20 43 18.8          15.6 V EL035941
     K04L02C  C2004 06 12.32012 20 51 12.56 -20 49 12.5          16.0 R EL035G90
     K04L02C  C2004 06 12.32146 20 51 13.40 -20 49 16.3          15.4 R EL035H06
     K04L02C  C2004 06 12.32243 20 51 14.29 -20 49 17.9          15.4 R EL035H06
     K04L02C  C2004 06 12.32337 20 51 15.15 -20 49 19.6          15.4 R EL035H06
     K04L02C  C2004 06 12.32348 20 51 15.63 -20 49 18.3          16.0 R EL035G90
     K04L02C  C2004 06 12.32686 20 51 18.70 -20 49 24.1          16.0 R EL035G90
     K04L02C  C2004 06 12.34576 20 51 35.77 -20 49 55.4          15.9 R EL035651
     K04L02C  C2004 06 12.34657 20 51 36.51 -20 49 56.9          15.8 R EL035651
     K04L02C  C2004 06 12.34719 20 51 37.08 -20 49 57.6          15.9 R EL035651
     K04L02C  C2004 06 12.41661 20 52 40.44 -20 51 52.4          15.7 R EL035926
     K04L02C  C2004 06 12.41718 20 52 40.97 -20 51 53.2          15.7 R EL035926
     K04L02C  C2004 06 12.41773 20 52 41.50 -20 51 54.3          15.7 R EL035926

Observer details:
620 Observatorio Astronomico de Mallorca.  Observers S. Sanchez, R. Stoss,
    J. Nomen.  0.30-m f/9 Schmidt-Cassegrain + CCD.
651 Grasslands Observatory, Tucson.  Observer J. E. McGaha.  0.62-m f/5.1
    Newtonian + CCD.
704 Lincoln Laboratory ETS, New Mexico.  Observers M. Blythe, F. Shelly,
    M. Bezpalko, R. Huber, L. Manguso, D. Torres, R. Kracke, M. McCleary,
    H. Stange, A. Milner.  Measurers J. Stuart, R. Sayer, J. Evans, J. Kommers.
    1.0-m f/2.15 reflector + CCD.
926 Tenagra II Observatory.  Observers P. R. Holvorcem, M. Schwartz.  0.81-m
    f/7 Ritchey-Chretien + CCD.
941 Observatorio Pla D'Arguines.  Observer R. Ferrando.
G90 Three Buttes Observatory, Tucson.  Observer G. R. Jones.  0.4-m
    Ritchey-Chretien + CCD.
H06 New Mexico Skies Observatory.  Observer R. Hutsebaut.  0.25-m reflector
    + CCD.
J87 La Canada.  Observer J. Lacruz.
J95 Great Shefford.  Observer P. Birtwhistle.  0.30-m f/6.3 Schmidt-Cassegrain
    + CCD.

Orbital elements:
2004 LC2
Epoch 2004 June 4.0 TT = JDT 2453160.5                  MPC
M 334.40469              (2000.0)            P               Q
n   0.39979349     Peri.  290.17200     +0.94929527     -0.25268850
a   1.8249273      Node    84.82687     +0.30895151     +0.85995445
e   0.7283285      Incl.   10.82519     -0.05820186     +0.44342627
P   2.47           H   18.6           G   0.15
From 32 observations 2004 June 11-12.

Ephemeris:
2004 LC2                 a,e,i = 1.82, 0.73, 11                  q = 0.4958
Date    TT    R. A. (2000) Decl.     Delta      r     Elong.  Phase     V
2004 06 04    19 40.06   -18 01.1    0.248    1.215   139.8    32.6    17.4
2004 06 05    19 45.04   -18 14.9    0.234    1.202   139.6    33.1    17.2
2004 06 06    19 50.61   -18 30.1    0.219    1.190   139.4    33.7    17.1
2004 06 07    19 56.90   -18 47.1    0.205    1.177   138.9    34.5    16.9
2004 06 08    20 04.06   -19 05.8    0.191    1.165   138.3    35.4    16.8
2004 06 09    20 12.29   -19 26.5    0.177    1.152   137.5    36.6    16.6
2004 06 10    20 21.85   -19 49.2    0.164    1.139   136.3    38.0    16.5
2004 06 11    20 33.06   -20 13.8    0.151    1.127   134.8    39.8    16.3
2004 06 12    20 46.36   -20 39.9    0.138    1.114   132.8    42.0    16.2
2004 06 13    21 02.31   -21 06.4    0.125    1.101   130.2    44.8    16.0
2004 06 14    21 21.62   -21 31.4    0.114    1.088   126.9    48.3    15.9
2004 06 15    21 45.14   -21 50.9    0.103    1.075   122.6    52.7    15.8
2004 06 16    22 13.78   -21 58.1    0.094    1.062   117.2    58.3    15.7
2004 06 17    22 48.25   -21 42.5    0.086    1.049   110.4    65.2    15.7
2004 06 18    23 28.53   -20 50.4    0.079    1.036   102.2    73.5    15.7
2004 06 19    00 13.25   -19 10.2    0.076    1.023    92.7    83.0    16.0
2004 06 20    00 59.53   -16 40.8    0.075    1.009    82.6    93.2    16.3
2004 06 21    01 43.82   -13 37.1    0.077    0.996    72.7   103.1    16.8
2004 06 22    02 23.39   -10 23.0    0.082    0.983    63.6   112.1    17.4
2004 06 23    02 57.08   -07 19.4    0.089    0.969    55.8   119.8    18.1
2004 06 24    03 24.99   -04 37.7    0.097    0.956    49.4   126.1    18.8

Timothy B. Spahr             (C) Copyright 2004 MPC           M.P.E.C. 2004-L35

Read MPEC 2004-L34 Read MPEC 2004-L36


Our Web policy. Index to the CBAT/MPC/ICQ pages.


Valid HTML 4.01!